Location: Fleischmann Planetarium and Science Center
(39.5456°N, 119.8190°W)
Time: 19:17:16
(UTC-07:00)

Daily predictions for brighter satellites

Satellite Brightness Start Highest point End
(mag) Time Altitude Azimuth Time Altitude Azimuth Time Altitude Azimuth
Resurs 1-3 3.6 19:54:31 10° SSE 19:58:51 67° ENE 20:03:12 10° N
Cosmos 2123 Rocket 4.3 19:55:45 10° N 20:01:42 48° ENE 20:07:38 10° SSE
BREEZE-M DEB (TANK) 4.0 20:07:21 10° N 20:08:10 11° NNE 20:09:06 10° NE
Cosmos 1633 4.0 20:06:42 10° SSW 20:10:11 43° W 20:13:41 10° N
Cosmos 1777 Rocket 4.3 20:05:19 10° NNW 20:10:35 75° WSW 20:15:50 10° S
OAO 2 Rocket 3.8 20:07:48 10° WSW 20:12:32 45° S 20:17:22 10° E
Cosmos 1697 Rocket 3.5 20:10:41 10° SSE 20:15:21 27° ESE 20:20:01 10° NE
Resurs 01 Rocket 2.6 20:16:42 10° S 20:21:00 52° W 20:25:22 10° NNW
Cosmos 2278 3.7 20:17:08 10° SSW 20:22:48 89° ESE 20:28:32 10° NNE
Cosmos 1544 Rocket 3.9 20:18:38 10° SSW 20:22:59 69° W 20:27:24 10° N
H-2A R/B 2.8 20:23:09 10° SSE 20:26:59 63° ENE 20:30:53 10° N
ALOS 2.2 20:22:24 10° SSE 20:27:03 79° ENE 20:31:45 10° N
Cosmos 1934 Rocket 4.1 20:21:00 10° S 20:27:08 84° W 20:33:24 10° N
CZ-4B DEB 3.1 20:24:08 10° S 20:27:24 72° WSW 20:30:42 10° NNW
Cosmos 1975 3.2 20:23:33 10° SSE 20:27:26 43° E 20:31:21 10° NNE
USA 186 1.8 20:25:13 10° SSE 20:28:15 50° ENE 20:31:05 10° N
NOSS 3-4 (A) 4.0 20:21:41 10° NW 20:28:45 77° WSW 20:36:13 10° SSE
NOSS 3-4 (C) 4.0 20:21:48 10° NW 20:28:53 78° WSW 20:36:21 10° SSE
Helios 1B rocket 4.4 20:28:26 10° N 20:32:09 33° WNW 20:35:51 10° SW
Lacrosse 5 rocket 1.0 20:31:08 10° NW 20:34:52 75° NE 20:37:27 18° SE
OTV 4 1.6 20:32:42 10° W 20:35:25 32° SSW 20:37:04 18° SE
Cosmos 2369 3.9 20:31:18 10° SSW 20:36:58 79° WNW 20:42:42 10° NNE
Okean 2 4.3 20:34:10 10° NNW 20:38:13 51° W 20:42:13 10° S
Cosmos 1980 Rocket 3.1 20:33:53 10° SSE 20:38:27 26° ESE 20:43:03 10° NE
Cosmos 2298 Rocket 4.4 20:35:39 10° N 20:40:47 47° ENE 20:44:41 17° SE
EO 1 Delta rocket 4.0 20:38:46 10° N 20:43:30 88° W 20:49:01 10° SSW
BREEZE-M DEB (TANK) 4.1 20:39:38 10° SW 20:43:31 90° NNW 20:57:39 10° ENE
Envisat 3.9 20:40:38 17° ESE 20:43:39 31° ENE 20:48:05 10° N
Cosmos 1937 Rocket 4.3 20:41:51 10° N 20:46:39 34° ENE 20:49:28 21° ESE
Iridium 4 Rocket 3.3 20:41:52 10° N 20:46:50 58° E 20:51:20 10° SSE
CZ-2D R/B 3.7 20:43:51 10° S 20:47:40 63° W 20:51:33 10° NNW
Tiangong 1 1.8 20:46:43 10° WNW 20:49:44 46° N 20:51:20 23° ENE
FENGYUN 3A 4.3 20:53:36 10° S 20:58:50 55° W 21:04:06 10° NNW
Cosmos 1500 3.0 20:56:23 10° S 21:00:07 68° E 21:03:53 10° NNE
Meteor 1-12 Rocket 4.5 20:55:43 10° SSW 21:01:25 75° W 21:07:17 10° N
Cosmos 1656 3.7 20:57:11 10° SSW 21:02:48 85° WNW 21:08:24 10° NNE
Cosmos 1939 Rocket 3.2 21:01:50 30° SE 21:03:28 48° ENE 21:07:29 10° N
Cosmos 1825 Rocket 4.2 21:01:46 10° N 21:05:52 36° ENE 21:06:47 32° ESE
Cosmos 2150 Rocket 3.9 21:01:44 10° NNW 21:06:53 69° ENE 21:09:44 27° SSE
Cosmos 2227 Rocket 3.1 21:02:52 10° NW 21:08:17 46° WSW 21:13:37 10° S
BREEZE-M TANK 3.4 20:58:56 10° WNW 21:10:18 71° NNE 21:12:07 32° E
Cosmos 2173 Rocket 4.0 21:05:05 10° S 21:11:18 60° E 21:17:31 10° NNE
ERS-1 Rocket 2.9 21:08:10 23° SSE 21:11:22 74° ENE 21:16:24 10° N
Cosmos 2322 Rocket 4.1 21:14:22 12° ENE 21:14:22 12° ENE 21:15:04 10° ENE
Cosmos 1340 3.5 21:08:25 10° N 21:11:43 32° ENE 21:11:43 32° ENE
YAOGAN 6 4.3 21:13:20 20° NE 21:13:20 20° NE 21:15:34 10° NNE
Lacrosse 5 2.1 21:08:20 10° NW 21:13:20 57° NE 21:15:16 35° ESE
Cosmos 1953 Rocket 4.3 21:12:07 10° N 21:16:12 35° ENE 21:16:29 34° E
YAOGAN 11 4.2 21:15:32 23° S 21:18:19 81° WSW 21:22:48 10° NNW
H-2A R/B 2.3 21:17:55 41° E 21:18:22 43° ENE 21:22:18 10° N
SPOT 5 3.4 21:19:03 36° ESE 21:20:10 42° ENE 21:24:43 10° N
DELTA 2 R/B (1) 3.7 21:15:44 10° W 21:21:12 60° SSW 21:23:11 37° SE
Cosmos 2360 4.5 21:20:15 26° SSE 21:22:54 43° ESE 21:28:18 10° NE
Cosmos 2297 Rocket 3.0 21:18:08 10° NW 21:23:33 49° WSW 21:28:02 15° S
Cosmos 1763 Rocket 3.5 21:21:33 29° SSE 21:23:50 51° ESE 21:28:45 10° NNE
Cosmos 1515 4.5 21:20:48 10° NNW 21:24:33 50° W 21:26:47 22° SSW
Cosmos 2100 Rocket 3.9 21:18:50 10° S 21:25:08 84° E 21:31:23 10° N
Cosmos 1898 Rocket 3.6 21:20:21 10° NNW 21:25:40 76° WSW 21:28:26 28° S
CZ-4 DEB 3.7 21:28:30 38° SW 21:29:09 45° W 21:32:12 10° NNW
RESURS DK-1 2.2 21:27:43 10° NNW 21:31:53 82° ENE 21:32:21 68° SE
Cosmos 2061 Rocket 3.9 21:26:14 10° S 21:32:33 87° E 21:38:51 10° N
Cosmos 1758 Rocket 3.9 21:30:48 10° N 21:34:39 45° ENE 21:34:39 45° ENE
Cosmos 2084 3.8 21:32:18 10° NW 21:36:19 54° WSW 21:37:09 45° SSW
MetOp-A 4.2 21:36:02 48° ESE 21:37:07 57° ENE 21:42:22 10° N
deb Chang Zheng 4 3.5 21:32:41 10° NNE 21:37:09 76° ESE 21:38:04 55° S
Cosmos 1743 2.8 21:36:51 49° SSW 21:37:49 75° W 21:41:45 10° N
Nimbus 7 Rocket 4.3 21:32:22 10° NNE 21:38:27 74° ESE 21:42:45 20° S
Cosmos 841 Rocket 3.3 21:44:51 46° S 21:46:24 74° ESE 21:51:38 10° NNE
Terra 3.8 21:50:19 16° NE 21:50:19 16° NE 21:52:11 10° NNE
USA 215 4.3 21:50:35 24° ENE 21:53:27 34° NNE 21:59:12 10° NW
Cosmos 1459 Rocket 4.4 21:50:59 10° SSW 21:56:55 58° W 22:02:56 10° N
OAO 2 Rocket 3.8 21:52:08 10° W 21:56:23 46° SSW 21:56:23 46° SSW
Cosmos 1725 Rocket 3.9 21:57:34 58° SE 21:58:36 69° E 22:04:48 10° NNE
Cosmos 2058 Rocket 3.4 21:59:31 57° NNE 21:59:31 57° NNE 22:03:11 10° N
Cosmos 1697 Rocket 4.0 21:53:47 10° SW 21:59:04 40° WNW 22:04:24 10° N
SL-19 R/B 4.1 21:56:38 10° NNE 22:01:34 63° ENE 22:01:34 63° ENE
Cosmos 1606 Rocket 4.2 22:04:30 47° WSW 22:05:12 53° W 22:09:33 10° N
Cosmos 1842 4.5 22:03:28 10° N 22:05:58 38° N 22:05:58 38° N
SL-16 R/B 3.3 22:09:53 31° NE 22:09:53 31° NE 22:12:59 10° NNE
NOAA 11 4.2 22:09:44 68° ENE 22:09:44 68° ENE 22:15:01 10° N
ASTEX 1 3.6 22:06:14 10° N 22:11:12 67° W 22:11:45 62° WSW
ARGOS 3.1 22:16:35 73° NNE 22:16:35 73° NNE 22:21:36 10° N
CZ-3C R/B 4.3 22:02:32 10° W 22:17:36 20° SW 22:20:53 17° SSW
Cosmos 1980 Rocket 3.3 22:16:47 10° SW 22:22:09 43° WNW 22:27:35 10° N
Cosmos 2233 Rocket 4.1 22:24:24 60° NE 22:24:24 60° NE 22:29:45 10° NNE
BREEZE-M DEB (TANK) 4.0 22:11:40 10° WNW 22:29:35 62° NNE 22:30:47 53° ENE
H-2A R/B 3.1 22:39:08 37° N 22:39:08 37° N 22:42:13 10° N
CZ-4B R/B 4.5 22:37:52 10° N 22:40:56 39° N 22:40:56 39° N
Meteor 2-5 Rocket 4.5 22:39:02 10° N 22:43:26 47° NNE 22:43:26 47° NNE
Milstar 3 Cent rocket 4.4 22:34:49 10° W 22:50:28 39° SSW 22:51:21 38° SSW
Cosmos 2263 Rocket 3.1 22:44:58 10° NNW 22:48:52 42° N 22:48:52 42° N
Cosmos 2322 Rocket 3.0 22:56:07 48° NNW 22:56:07 48° NNW 23:00:28 10° NNE
Lacrosse 5 3.9 22:52:03 10° WNW 22:54:28 20° W 22:54:28 20° W
Terra 4.0 23:29:13 23° NNW 23:29:13 23° NNW 23:31:06 10° NNW
USA 215 3.9 23:37:56 50° NW 23:37:56 50° NW 23:42:36 10° NW
Cosmos 2278 Rocket 4.5 23:34:28 10° N 23:36:40 16° NNE 23:36:40 16° NNE
SL-16 R/B 4.2 23:51:41 23° WNW 23:51:54 23° NW 23:56:22 10° N
